| time (UTC) | temp F | wind direction | speed MPH | gust MPH | rain 1hr in | rain 24hr in | rain mn in | humidity % | barometer mb |
| 20260901103100 | 65 | 62 | 4.0 | 7.0 | 0.00 | 0.00 | 0.00 | 77 | 1006.7 |
| 20260901101601 | 65 | 40 | 3.0 | 6.0 | 0.00 | 0.00 | 0.00 | 76 | 1006.5 |
| 20260901094555 | 68 | 340 | 2.0 | 8.0 | 0.00 | 0.00 | 0.00 | 73 | 1006.3 |
| 20260901093050 | 66 | 335 | 2.0 | 6.0 | 0.00 | 0.00 | 0.00 | 75 | 1006.2 |
| 20260901091547 | 64 | 9 | 1.0 | 3.0 | 0.00 | 0.00 | 0.00 | 80 | 1006.2 |
| 20260901090050 | 62 | 54 | 0.0 | 2.0 | 0.00 | 0.00 | 0.00 | 79 | 1006.3 |
| 20260901084550 | 62 | 56 | 1.0 | 4.0 | 0.00 | 0.00 | 0.00 | 81 | 1006.3 |
| 20260901083044 | 63 | 60 | 1.0 | 5.0 | 0.00 | 0.00 | 0.00 | 81 | 1006.2 |
| 20260901081542 | 63 | 61 | 1.0 | 4.0 | 0.00 | 0.00 | 0.00 | 81 | 1006.1 |
| 20260901080040 | 63 | 54 | 2.0 | 5.0 | 0.00 | 0.00 | 0.00 | 81 | 1006.1 |
| 20260901074545 | 63 | 58 | 3.0 | 6.0 | 0.00 | 0.00 | 0.00 | 81 | 1006.0 |
| 20260901073036 | 61 | 52 | 2.0 | 6.0 | 0.00 | 0.00 | 0.00 | 80 | 1005.9 |
| 20260901071536 | 61 | 52 | 3.0 | 6.0 | 0.00 | 0.00 | 0.00 | 80 | 1005.9 |
| 20260901070032 | 61 | 49 | 2.0 | 6.0 | 0.00 | 0.00 | 0.00 | 77 | 1005.8 |
| 20260901064532 | 61 | 44 | 3.0 | 6.0 | 0.00 | 0.00 | 0.00 | 74 | 1005.7 |
| 20260901063028 | 60 | 50 | 2.0 | 6.0 | 0.00 | 0.00 | 0.00 | 64 | 1005.7 |
| 20260901061527 | 59 | 52 | 1.0 | 5.0 | 0.00 | 0.00 | 0.00 | 53 | 1005.7 |
| 20260901060020 | 58 | 48 | 1.0 | 5.0 | 0.00 | 0.00 | 0.00 | 45 | 1005.7 |
| 20260901054520 | 57 | 47 | 1.0 | 5.0 | 0.00 | 0.00 | 0.00 | 42 | 1005.7 |
| 20260901053018 | 57 | 10 | 1.0 | 3.0 | 0.00 | 0.00 | 0.00 | 40 | 1005.8 |
| 20260901051517 | 56 | 17 | 1.0 | 2.0 | 0.00 | 0.00 | 0.00 | 41 | 1005.6 |
| 20260901050016 | 56 | 3 | 0.0 | 0.0 | 0.00 | 0.00 | 0.00 | 44 | 1005.6 |
| 20260901044532 | 55 | 3 | 0.0 | 0.0 | 0.00 | 0.00 | 0.00 | 45 | 1005.6 |
| 20260901043013 | 55 | 3 | 0.0 | 1.0 | 0.00 | 0.00 | 0.00 | 44 | 1005.5 |
| 20260901041523 | 55 | 45 | 0.0 | 0.0 | 0.00 | 0.00 | 0.00 | 47 | 1005.5 |
| 20260901040010 | 55 | 45 | 0.0 | 0.0 | 0.00 | 0.00 | 0.00 | 50 | 1005.5 |
| 20260901034509 | 55 | 45 | 0.0 | 0.0 | 0.00 | 0.00 | 0.00 | 51 | 1005.4 |
| 20260901033012 | 55 | 45 | 0.0 | 0.0 | 0.00 | 0.00 | 0.00 | 55 | 1005.5 |
| 20260901031506 | 56 | 45 | 0.0 | 0.0 | 0.00 | 0.00 | 0.00 | 54 | 1005.4 |
| 20260901030003 | 56 | 45 | 0.0 | 0.0 | 0.00 | 0.00 | 0.00 | 56 | 1005.4 |
| 20260901024502 | 56 | 45 | 0.0 | 1.0 | 0.00 | 0.00 | 0.00 | 56 | 1005.5 |
| 20260901023059 | 56 | 45 | 0.0 | 1.0 | 0.00 | 0.00 | 0.00 | 58 | 1005.5 |
| 20260901021604 | 56 | 45 | 0.0 | 0.0 | 0.00 | 0.00 | 0.00 | 62 | 1005.4 |
| 20260901020055 | 57 | 45 | 0.0 | 1.0 | 0.00 | 0.00 | 0.00 | 61 | 1005.4 |
| 20260901014554 | 57 | 45 | 0.0 | 1.0 | 0.00 | 0.01 | 0.00 | 62 | 1005.3 |
| 20260901013111 | 57 | 45 | 0.0 | 1.0 | 0.00 | 0.01 | 0.00 | 62 | 1005.2 |
| 20260901011609 | 57 | 66 | 0.0 | 0.0 | 0.00 | 0.01 | 0.00 | 65 | 1005.1 |
| 20260901010051 | 57 | 66 | 0.0 | 0.0 | 0.00 | 0.01 | 0.00 | 64 | 1005.2 |
| 20260901004547 | 58 | 66 | 0.0 | 0.0 | 0.00 | 0.01 | 0.00 | 64 | 1005.2 |
| 20260901003049 | 58 | 71 | 0.0 | 0.0 | 0.00 | 0.01 | 0.00 | 65 | 1005.2 |
| 20260901001545 | 58 | 303 | 0.0 | 1.0 | 0.00 | 0.01 | 0.00 | 66 | 1005.3 |
| 20260901000045 | 58 | 303 | 0.0 | 2.0 | 0.00 | 0.01 | 0.00 | 67 | 1005.3 |
| 20260831234545 | 58 | 303 | 0.0 | 1.0 | 0.00 | 0.01 | 0.00 | 68 | 1005.3 |
| 20260831233040 | 58 | 303 | 0.0 | 0.0 | 0.00 | 0.01 | 0.00 | 71 | 1005.4 |
| 20260831231541 | 58 | 303 | 0.0 | 0.0 | 0.00 | 0.01 | 0.00 | 73 | 1005.3 |
| 20260831230039 | 58 | 303 | 0.0 | 2.0 | 0.00 | 0.01 | 0.00 | 72 | 1005.3 |
| 20260831224537 | 58 | 303 | 0.0 | 3.0 | 0.00 | 0.02 | 0.00 | 71 | 1005.5 |
| 20260831223043 | 58 | 308 | 0.0 | 3.0 | 0.00 | 0.02 | 0.00 | 71 | 1005.5 |
| 20260831221541 | 58 | 285 | 1.0 | 3.0 | 0.00 | 0.02 | 0.00 | 71 | 1005.4 |
| 20260831220029 | 58 | 294 | 0.0 | 4.0 | 0.00 | 0.02 | 0.00 | 69 | 1005.4 |
| 20260831214529 | 57 | 303 | 0.0 | 0.0 | 0.00 | 0.02 | 0.02 | 70 | 1005.4 |
| 20260831213028 | 57 | 303 | 0.0 | 0.0 | 0.00 | 0.02 | 0.02 | 69 | 1005.3 |
| 20260831211536 | 57 | 360 | 0.0 | 0.0 | 0.00 | 0.02 | 0.02 | 71 | 1005.1 |
| 20260831210030 | 57 | 12 | 0.0 | 0.0 | 0.00 | 0.02 | 0.02 | 74 | 1005.1 |
| 20260831204527 | 57 | 12 | 0.0 | 0.0 | 0.00 | 0.03 | 0.02 | 76 | 1005.1 |
| 20260831203039 | 57 | 12 | 0.0 | 0.0 | 0.00 | 0.03 | 0.02 | 79 | 1005.2 |
| 20260831201524 | 57 | 12 | 0.0 | 0.0 | 0.00 | 0.03 | 0.02 | 80 | 1005.2 |
| 20260831200027 | 58 | 12 | 0.0 | 0.0 | 0.00 | 0.03 | 0.02 | 81 | 1005.1 |
| 20260831194524 | 59 | 12 | 0.0 | 2.0 | 0.00 | 0.03 | 0.02 | 81 | 1005.1 |
| 20260831193021 | 59 | 32 | 0.0 | 1.0 | 0.00 | 0.03 | 0.02 | 81 | 1005.0 |
| 20260831191523 | 60 | 32 | 0.0 | 0.0 | 0.00 | 0.03 | 0.02 | 81 | 1004.9 |
| 20260831190022 | 61 | 32 | 0.0 | 1.0 | 0.00 | 0.03 | 0.02 | 80 | 1004.9 |
| 20260831184524 | 62 | 32 | 0.0 | 2.0 | 0.00 | 0.03 | 0.02 | 78 | 1005.0 |
| 20260831183020 | 63 | 9 | 2.0 | 5.0 | 0.00 | 0.03 | 0.02 | 77 | 1005.2 |
| 20260831181520 | 63 | 38 | 0.0 | 3.0 | 0.00 | 0.03 | 0.02 | 75 | 1005.1 |
| 20260831180021 | 64 | 5 | 0.0 | 2.0 | 0.00 | 0.03 | 0.02 | 73 | 1005.0 |
| 20260831174519 | 65 | 8 | 0.0 | 1.0 | 0.00 | 0.03 | 0.02 | 72 | 1005.0 |
| 20260831173018 | 65 | 8 | 0.0 | 1.0 | 0.00 | 0.03 | 0.02 | 71 | 1004.9 |
| 20260831171518 | 66 | 8 | 0.0 | 2.0 | 0.00 | 0.03 | 0.02 | 70 | 1004.9 |
| 20260831170017 | 66 | 9 | 0.0 | 2.0 | 0.00 | 0.03 | 0.02 | 68 | 1005.0 |
| 20260831164523 | 67 | 23 | 1.0 | 3.0 | 0.00 | 0.03 | 0.02 | 66 | 1005.0 |
| 20260831163021 | 67 | 29 | 2.0 | 6.0 | 0.00 | 0.03 | 0.02 | 65 | 1004.9 |
| 20260831161516 | 68 | 360 | 2.0 | 7.0 | 0.00 | 0.03 | 0.02 | 64 | 1004.9 |
| 20260831160016 | 67 | 47 | 2.0 | 5.0 | 0.00 | 0.03 | 0.02 | 67 | 1004.7 |
| 20260831154515 | 67 | 38 | 1.0 | 5.0 | 0.00 | 0.06 | 0.02 | 68 | 1004.7 |
| 20260831153013 | 67 | 62 | 3.0 | 8.0 | 0.00 | 0.06 | 0.02 | 67 | 1004.8 |
| 20260831151514 | 68 | 14 | 3.0 | 8.0 | 0.00 | 0.06 | 0.02 | 67 | 1004.9 |
| 20260831150009 | 66 | 66 | 3.0 | 8.0 | 0.00 | 0.06 | 0.02 | 69 | 1004.9 |
| 20260831144509 | 66 | 14 | 3.0 | 8.0 | 0.00 | 0.07 | 0.02 | 71 | 1005.0 |
| 20260831143008 | 65 | 4 | 2.0 | 7.0 | 0.00 | 0.07 | 0.02 | 73 | 1005.2 |
| 20260831141507 | 65 | 43 | 2.0 | 6.0 | 0.00 | 0.07 | 0.02 | 74 | 1005.2 |
| 20260831140015 | 65 | 50 | 4.0 | 8.0 | 0.00 | 0.07 | 0.02 | 74 | 1005.3 |
| 20260831134507 | 65 | 52 | 4.0 | 9.0 | 0.00 | 0.09 | 0.02 | 73 | 1005.4 |
| 20260831133108 | 65 | 45 | 2.0 | 8.0 | 0.00 | 0.09 | 0.02 | 73 | 1005.2 |
| 20260831131504 | 65 | 47 | 6.0 | 10.0 | 0.00 | 0.09 | 0.02 | 71 | 1005.1 |
| 20260831130006 | 65 | 31 | 5.0 | 11.0 | 0.00 | 0.09 | 0.02 | 73 | 1005.1 |
| 20260831124504 | 65 | 52 | 5.0 | 9.0 | 0.00 | 0.09 | 0.02 | 72 | 1005.1 |
| 20260831123002 | 65 | 20 | 5.0 | 10.0 | 0.00 | 0.09 | 0.02 | 71 | 1005.2 |
| 20260831121503 | 66 | 13 | 5.0 | 11.0 | 0.00 | 0.09 | 0.02 | 69 | 1005.1 |
| 20260831120002 | 67 | 24 | 4.0 | 10.0 | 0.00 | 0.09 | 0.02 | 70 | 1005.0 |
| 20260831114600 | 65 | 68 | 7.0 | 13.0 | 0.00 | 0.09 | 0.02 | 69 | 1005.2 |
| 20260831113105 | 65 | 7 | 5.0 | 12.0 | 0.00 | 0.09 | 0.02 | 71 | 1005.2 |
| 20260831111612 | 65 | 67 | 5.0 | 12.0 | 0.00 | 0.09 | 0.02 | 71 | 1005.3 |
| 20260831110056 | 65 | 51 | 6.0 | 11.0 | 0.00 | 0.09 | 0.02 | 72 | 1005.4 |
| 20260831104555 | 65 | 48 | 4.0 | 12.0 | 0.00 | 0.09 | 0.02 | 73 | 1005.4 |